Waarnemingen

Advertentie
Mijn weer
Arvika, Zweden (2411): temperatuur & dauwpunt: 09.08.2020 16:00:00 - 15.08.2020 16:00:00 (CEST)Arvika, Zweden (2411): windsnelheid & windstoten: 09.08.2020 16:00:00 - 15.08.2020 16:00:00 (CEST)Arvika, Zweden (2411): windrichting: 09.08.2020 16:00:00 - 15.08.2020 16:00:00 (CEST)Arvika, Zweden (2411): luchtdruk: 09.08.2020 16:00:00 - 15.08.2020 16:00:00 (CEST)Arvika, Zweden (2411): zicht: 09.08.2020 16:00:00 - 15.08.2020 16:00:00 (CEST)Arvika, Zweden (2411): neerslag: 09.08.2020 16:00:00 - 15.08.2020 16:00:00 (CEST)
Datum & Tijd tt [°C] td [°C] ff [km/u] ff [kn] fx [km/u] fx [kn] dd ppp [hPa] vv [km] rr [mm]
15.08.2020 16:00:00 25,9 15,5 7 4 14 8 WNW 1015,3 27 0,0
15.08.2020 15:00:00 24,6 16,3 3 2 10 6 N 1015,6 29 0,0
15.08.2020 14:00:00 23,4 15,7 3 2 16 9 NW 1015,9 25 0,0
15.08.2020 13:00:00 21,8 16,1 5 3 13 7 N 1016,0 24 0,0
15.08.2020 12:00:00 19,3 15,8 7 4 14 8 NNW 1016,1 22 0,0
15.08.2020 11:00:00 17,6 15,4 6 3 12 6 N 1016,2 25 0,0
15.08.2020 10:00:00 16,7 14,9 4 2 11 6 N 1016,1 28 0,0
15.08.2020 09:00:00 15,4 14,3 7 4 13 7 N 1015,8 23 0,0
15.08.2020 08:00:00 15,3 14,5 2 1 9 5 NW 1015,5 35 0,0
15.08.2020 07:00:00 11,0 10,8 0 0 3 1 N 1015,1 26 0,0
15.08.2020 06:00:00 9,1 9,0 0 0 2 1 N 1014,9 20 0,0
15.08.2020 05:00:00 9,2 9,1 0 0 0 0 N 1014,8 0,9 0,0
15.08.2020 04:00:00 9,6 9,5 0 0 1 1 N 1014,8 1,2 0,0
15.08.2020 03:00:00 10,2 10,1 0 0 2 1 N 1014,7 9 0,0
15.08.2020 02:00:00 10,5 10,3 0 0 3 1 N 1014,6 13 0,0
15.08.2020 01:00:00 11,0 10,8 0 0 2 1 N 1014,4 6 0,0
15.08.2020 00:00:00 12,2 11,8 0 0 3 2 N 1014,2 1,8 0,0
14.08.2020 23:00:00 13,2 12,7 0 0 3 2 N 1013,8 9 0,0
14.08.2020 22:00:00 14,4 13,4 0 0 4 2 N 1013,3 16 0,0
14.08.2020 21:00:00 17,5 14,6 0 0 9 5 N 1012,8 43 0,0
14.08.2020 20:00:00 22,3 14,4 0 0 13 7 N 1012,4 50 0,0
14.08.2020 19:00:00 25,7 13,9 5 3 16 9 ZZW 1011,9 50 0,0
14.08.2020 18:00:00 25,7 14,8 3 2 10 6 W 1011,9 44 0,0
14.08.2020 17:00:00 25,8 16,6 5 3 15 8 NNW 1012,0 47 0,0
14.08.2020 16:00:00 27,7 15,7 5 3 18 10 ZW 1012,0 40 0,0
14.08.2020 15:00:00 26,5 15,8 3 2 14 7 ZW 1012,6 43 0,0
14.08.2020 14:00:00 26,4 16,9 3 2 16 9 ZZW 1012,9 44 0,0
14.08.2020 13:00:00 24,1 15,3 6 3 14 8 ZZW 1013,3 40 0,0
14.08.2020 12:00:00 23,2 14,5 4 2 11 6 ZW 1013,5 38 0,0
14.08.2020 11:00:00 21,9 13,0 6 3 11 6 ZZW 1013,7 39 0,0
14.08.2020 10:00:00 21,5 13,4 0 0 6 3 N 1013,8 42 0,0
14.08.2020 09:00:00 18,7 14,2 3 1 6 3 Z 1013,8 42 0,0
14.08.2020 08:00:00 16,5 14,3 0 0 2 1 N 1014,2 35 0,0
14.08.2020 07:00:00 13,9 13,6 3 2 6 4 ZZO 1014,3 17 0,0
14.08.2020 06:00:00 13,8 13,3 0 0 16 9 N 1014,5 18 0,2
14.08.2020 05:00:00 11,9 11,4 4 2 9 5 Z 1014,3 17 -
14.08.2020 04:00:00 10,1 9,6 0 0 4 2 N 1015,1 48 0,0
14.08.2020 03:00:00 10,0 9,7 3 2 4 2 N 1015,3 38 0,0
14.08.2020 02:00:00 10,3 9,8 0 0 3 2 N 1015,5 45 0,0
14.08.2020 01:00:00 10,7 10,1 4 2 6 4 N 1015,9 40 0,0
14.08.2020 00:00:00 11,9 11,0 0 0 4 2 N 1016,0 48 0,0
13.08.2020 23:00:00 13,6 12,5 0 0 4 2 N 1015,8 49 0,0
13.08.2020 22:00:00 15,8 13,8 0 0 5 3 N 1015,7 38 0,0
13.08.2020 21:00:00 20,9 13,1 2 1 8 4 W 1015,2 50 0,0
13.08.2020 20:00:00 22,7 13,5 2 1 11 6 W 1015,1 50 0,0
13.08.2020 19:00:00 23,8 12,8 4 2 12 6 W 1014,9 50 0,0
13.08.2020 18:00:00 24,9 12,5 4 2 18 10 ZW 1015,0 50 0,0
13.08.2020 17:00:00 26,9 12,9 6 4 19 10 ZZW 1015,1 50 0,0
13.08.2020 16:00:00 27,2 11,6 6 3 14 8 ZW 1015,5 43 0,0
13.08.2020 15:00:00 26,6 12,6 5 3 22 12 ZZW 1015,9 40 0,0
13.08.2020 14:00:00 26,9 13,3 4 2 19 10 Z 1016,3 39 0,0
13.08.2020 13:00:00 24,8 13,4 4 2 10 5 Z 1016,8 47 0,0
13.08.2020 12:00:00 23,4 13,8 2 1 11 6 ZZW 1017,2 43 0,0
13.08.2020 11:00:00 22,9 14,2 2 1 8 4 ZW 1017,7 17 0,0
13.08.2020 10:00:00 21,3 14,2 2 1 8 4 ZO 1017,7 38 0,0
13.08.2020 09:00:00 19,5 14,0 0 0 4 2 N 1017,8 44 0,0
13.08.2020 08:00:00 16,7 14,3 2 1 4 2 ZO 1018,1 39 0,0
13.08.2020 07:00:00 12,2 12,0 0 0 1 1 N 1018,3 36 0,0
13.08.2020 06:00:00 11,0 10,8 0 0 1 1 N 1018,6 15 0,0
13.08.2020 05:00:00 11,1 10,9 0 0 2 1 N 1018,8 14 0,0
13.08.2020 04:00:00 11,1 10,9 0 0 2 1 N 1019,1 15 0,0
13.08.2020 03:00:00 11,3 11,1 3 1 4 2 NNO 1019,2 0,9 0,0
13.08.2020 02:00:00 12,0 11,7 0 0 4 2 N 1019,3 3,4 0,0
13.08.2020 01:00:00 12,7 12,2 0 0 5 3 N 1019,4 - 0,0
13.08.2020 00:00:00 14,0 13,5 3 2 8 4 ZZO 1019,3 20 0,0
12.08.2020 23:00:00 14,3 13,8 0 0 5 3 N 1019,3 9 0,0
12.08.2020 22:00:00 15,8 15,0 0 0 4 2 N 1019,1 15 0,0
12.08.2020 21:00:00 19,9 15,2 0 0 10 5 N 1019,1 50 0,0
12.08.2020 20:00:00 22,6 15,2 3 1 19 10 WZW 1019,0 50 0,0
12.08.2020 19:00:00 24,7 15,1 3 2 23 12 W 1019,2 50 0,0
12.08.2020 18:00:00 25,6 14,1 4 2 21 12 W 1019,5 36 0,0
12.08.2020 17:00:00 25,5 14,6 4 2 20 11 WZW 1019,9 50 0,0
12.08.2020 16:00:00 26,4 14,2 6 3 16 9 Z 1020,2 42 0,0
12.08.2020 15:00:00 26,5 14,4 5 3 16 9 Z 1020,8 31 0,0
12.08.2020 14:00:00 26,1 15,5 6 3 18 10 Z 1021,5 46 0,0
12.08.2020 13:00:00 25,1 13,9 9 5 18 10 ZZO 1021,9 32 0,0
12.08.2020 12:00:00 24,3 13,8 7 4 14 8 Z 1022,4 35 0,0
12.08.2020 11:00:00 22,9 11,9 8 4 13 7 Z 1023,1 47 0,0
12.08.2020 10:00:00 21,6 13,0 5 3 10 6 ZZO 1023,4 43 0,0
12.08.2020 09:00:00 18,4 13,7 0 0 4 2 N 1023,6 43 0,0
12.08.2020 08:00:00 15,1 13,1 0 0 3 2 N 1024,0 41 0,0
12.08.2020 07:00:00 10,8 10,6 0 0 0 0 N 1024,4 38 0,0
12.08.2020 06:00:00 9,0 8,9 0 0 1 1 N 1024,8 31 0,0
12.08.2020 05:00:00 8,6 8,5 0 0 0 0 N 1025,1 - 0,0
12.08.2020 04:00:00 9,2 9,1 0 0 1 1 N 1025,4 - 0,0
12.08.2020 03:00:00 9,6 9,5 0 0 1 0 N 1025,5 - 0,0
12.08.2020 02:00:00 9,7 9,6 0 0 1 1 N 1025,3 - 0,0
12.08.2020 01:00:00 10,6 10,4 0 0 2 1 N 1025,3 - 0,0
12.08.2020 00:00:00 11,3 11,0 0 0 2 1 N 1025,2 - 0,0
11.08.2020 23:00:00 12,1 11,8 0 0 2 1 N 1025,2 - 0,0
11.08.2020 22:00:00 13,3 12,7 2 1 3 2 N 1024,9 - 0,0
11.08.2020 21:00:00 16,0 13,8 2 1 5 3 NNO 1024,7 - 0,0
11.08.2020 20:00:00 22,2 11,0 4 2 12 6 Z 1024,4 - 0,0
11.08.2020 19:00:00 23,6 11,0 7 4 14 8 ZZO 1024,6 46 0,0
11.08.2020 18:00:00 23,4 11,1 9 5 19 10 Z 1025,0 40 0,0
11.08.2020 17:00:00 24,2 13,1 10 5 19 11 ZZO 1025,2 50 0,0
11.08.2020 16:00:00 24,0 12,3 10 5 23 13 Z 1025,4 38 0,0
11.08.2020 15:00:00 24,6 12,9 7 4 16 8 ZZO 1025,7 41 0,0
11.08.2020 14:00:00 24,5 11,1 8 5 19 10 ZO 1025,9 38 0,0
11.08.2020 13:00:00 24,0 12,6 8 5 22 12 ZO 1025,9 31 0,0
11.08.2020 12:00:00 23,2 11,5 10 5 17 9 ZO 1026,0 43 0,0
11.08.2020 11:00:00 21,5 12,1 9 5 17 9 OZO 1026,1 37 0,0
11.08.2020 10:00:00 20,6 12,3 6 3 11 6 ZO 1026,2 44 0,0
11.08.2020 09:00:00 18,9 12,4 6 3 13 7 ZZO 1026,2 39 0,0
11.08.2020 08:00:00 16,4 13,3 0 0 3 2 N 1026,3 40 0,0
11.08.2020 07:00:00 11,5 11,3 0 0 3 2 N 1026,5 33 0,0
11.08.2020 06:00:00 9,8 9,7 0 0 3 1 N 1026,2 1,1 0,0
11.08.2020 05:00:00 10,4 10,2 0 0 4 2 N 1025,9 10 0,0
11.08.2020 04:00:00 10,4 10,3 2 1 4 2 N 1026,0 7 0,0
11.08.2020 03:00:00 10,7 10,5 0 0 3 1 N 1025,7 0,8 0,0
11.08.2020 02:00:00 12,3 12,1 0 0 2 1 N 1025,5 19 0,0
11.08.2020 01:00:00 13,6 13,3 0 0 3 1 N 1025,4 10 0,0
11.08.2020 00:00:00 14,4 14,1 0 0 3 2 N 1025,1 42 0,0
10.08.2020 23:00:00 14,7 14,1 0 0 3 1 N 1024,5 32 0,0
10.08.2020 22:00:00 15,1 14,3 0 0 3 1 N 1024,0 22 0,0
10.08.2020 21:00:00 18,2 16,0 0 0 2 1 N 1023,6 45 0,0
10.08.2020 20:00:00 19,5 16,2 0 0 3 2 N 1023,5 50 0,0
10.08.2020 19:00:00 22,3 15,4 0 0 12 7 N 1023,2 50 0,0
10.08.2020 18:00:00 23,7 10,4 7 4 16 9 ZO 1023,3 49 0,0
10.08.2020 17:00:00 23,9 10,2 8 4 17 9 ZO 1023,5 50 0,0
10.08.2020 16:00:00 23,2 9,6 10 6 20 11 ZZO 1024,0 40 0,0
10.08.2020 15:00:00 23,1 11,8 6 3 18 10 O 1024,4 48 0,0
10.08.2020 14:00:00 22,4 9,5 9 5 27 15 ONO 1024,6 50 0,0
10.08.2020 13:00:00 21,2 9,1 9 5 21 11 OZO 1024,7 38 0,0
10.08.2020 12:00:00 20,4 8,4 8 4 29 15 OZO 1024,9 44 0,0
10.08.2020 11:00:00 20,6 8,9 11 6 27 15 O 1025,1 46 0,0
10.08.2020 10:00:00 19,3 8,0 14 8 29 16 ZO 1024,9 50 0,0
10.08.2020 09:00:00 18,7 8,9 10 6 24 13 O 1025,0 44 0,0
10.08.2020 08:00:00 17,8 8,1 8 4 18 10 OZO 1024,8 45 0,0
10.08.2020 07:00:00 16,9 9,1 5 3 16 9 O 1024,5 50 0,0
10.08.2020 06:00:00 17,5 9,1 6 3 19 10 O 1024,3 50 0,0
10.08.2020 05:00:00 17,7 10,1 5 3 16 8 O 1023,8 50 0,0
10.08.2020 04:00:00 18,4 9,7 6 3 19 10 OZO 1023,5 50 0,0
10.08.2020 03:00:00 18,7 10,3 7 4 21 11 O 1023,2 50 0,0
10.08.2020 02:00:00 18,8 11,8 5 3 21 11 O 1023,1 50 0,0
10.08.2020 01:00:00 19,1 12,1 2 1 21 11 ZO 1023,1 50 0,0
10.08.2020 00:00:00 19,3 12,3 9 5 27 15 ONO 1022,7 50 0,0
09.08.2020 23:00:00 18,5 12,9 8 4 16 9 NNO 1022,3 50 0,0
09.08.2020 22:00:00 16,4 13,9 0 0 13 7 N 1022,1 50 0,0
09.08.2020 21:00:00 17,8 14,1 5 3 15 8 NNO 1021,7 50 0,0
09.08.2020 20:00:00 20,7 14,4 11 6 20 11 NNO 1021,2 48 0,0
09.08.2020 19:00:00 22,7 14,5 13 7 21 11 NNO 1021,1 47 0,0
09.08.2020 18:00:00 22,3 14,4 11 6 18 10 NNO 1021,1 49 0,0
09.08.2020 17:00:00 24,1 15,8 10 6 20 11 NNO 1021,3 45 0,0
09.08.2020 16:00:00 23,7 16,5 8 4 22 12 NO 1021,5 39 0,0

tt = temperatuur
td = dauwpunt
ff = windsnelheid
fx = windstoten
dd = windrichting
ppp = luchtdruk
vv = zicht
rr = neerslag

Weerstations in de omgeving